TIANMU-1 22

Last updated on Mon Jun 22 2026 00:02:46 GMT+0000 (Coordinated Universal Time)

1 58663U 23208D 26172.51689759 .00005940 00000+0 20026-3 0 9991 2 58663 97.4501 288.7713 0002791 346.8495 13.2672 15.31108395137996
UTC large
Height (km)
Speed (km/s)
/
Latitude / Longitude
Inclination (degrees)
Orbital Period (minutes)
Azimuth
Elevation
Range (km)
Doppler Factor

Next 0 passes for location: London (51.5072 / 0.1276)

No passes found over London.
TIANMU-1 22